TimeCST,TemperatureF,Dew PointF,Humidity,Sea Level PressureIn,VisibilityMPH,Wind Direction,Wind SpeedMPH,Gust SpeedMPH,PrecipitationIn,Events,Conditions,WindDirDegrees,DateUTC
12:15 AM,29.8,27.0,89,30.12,10.0,SSW,5.8,-,N/A,,Overcast,210,2012-12-28 06:15:00
12:35 AM,29.5,26.4,88,30.12,10.0,SW,5.8,-,N/A,,Overcast,220,2012-12-28 06:35:00
12:55 AM,29.8,26.6,88,30.12,10.0,South,5.8,-,N/A,,Overcast,190,2012-12-28 06:55:00
1:15 AM,29.8,26.6,88,30.12,10.0,South,5.8,-,N/A,,Overcast,180,2012-12-28 07:15:00
1:35 AM,29.8,26.4,87,30.12,10.0,South,6.9,-,N/A,,Overcast,190,2012-12-28 07:35:00
1:55 AM,30.0,26.8,88,30.12,10.0,South,4.6,-,N/A,,Overcast,190,2012-12-28 07:55:00
2:15 AM,29.8,27.0,89,30.12,10.0,South,3.5,-,N/A,,Overcast,190,2012-12-28 08:15:00
2:35 AM,29.7,27.0,90,30.12,10.0,Calm,Calm,-,N/A,,Overcast,0,2012-12-28 08:35:00
2:55 AM,29.7,27.0,90,30.11,10.0,South,3.5,-,N/A,,Overcast,170,2012-12-28 08:55:00
3:15 AM,29.7,27.0,90,30.10,10.0,South,3.5,-,N/A,,Overcast,170,2012-12-28 09:15:00
3:35 AM,29.3,27.0,91,30.09,10.0,SSE,3.5,-,N/A,,Overcast,150,2012-12-28 09:35:00
3:55 AM,29.1,27.0,92,30.09,7.0,SSE,3.5,-,N/A,,Overcast,150,2012-12-28 09:55:00
4:15 AM,29.3,27.0,91,30.08,7.0,SE,3.5,-,N/A,,Overcast,140,2012-12-28 10:15:00
4:35 AM,29.3,27.0,91,30.08,7.0,SSE,3.5,-,N/A,,Overcast,160,2012-12-28 10:35:00
4:55 AM,29.3,26.8,90,30.08,10.0,Calm,Calm,-,N/A,,Overcast,0,2012-12-28 10:55:00
5:15 AM,29.3,26.8,90,30.08,10.0,ESE,3.5,-,N/A,,Overcast,110,2012-12-28 11:15:00
5:35 AM,29.3,26.6,90,30.08,10.0,ESE,3.5,-,N/A,,Overcast,110,2012-12-28 11:35:00
5:55 AM,29.1,26.6,90,30.08,10.0,Calm,Calm,-,N/A,,Overcast,0,2012-12-28 11:55:00
6:15 AM,29.3,27.0,91,30.08,10.0,Calm,Calm,-,N/A,,Overcast,0,2012-12-28 12:15:00
6:35 AM,28.9,27.0,92,30.09,7.0,SSE,3.5,-,N/A,,Overcast,160,2012-12-28 12:35:00
6:55 AM,29.1,27.0,92,30.09,10.0,SSE,4.6,-,N/A,,Overcast,150,2012-12-28 12:55:00
7:15 AM,29.3,27.0,91,30.10,7.0,SE,4.6,-,N/A,,Overcast,140,2012-12-28 13:15:00
7:35 AM,29.3,27.0,91,30.10,5.0,SE,4.6,-,N/A,,Overcast,140,2012-12-28 13:35:00
7:55 AM,29.3,27.1,92,30.11,5.0,SE,4.6,-,N/A,,Overcast,140,2012-12-28 13:55:00
8:15 AM,29.3,27.3,92,30.11,5.0,SE,4.6,-,N/A,,Overcast,140,2012-12-28 14:15:00
8:35 AM,29.3,27.5,93,30.11,1.0,SE,9.2,-,N/A,,Overcast,140,2012-12-28 14:35:00
8:55 AM,29.1,27.9,95,30.11,1.2,SSE,9.2,-,N/A,,Overcast,150,2012-12-28 14:55:00
9:15 AM,29.1,28.2,96,30.11,1.5,SE,10.4,-,N/A,,Overcast,140,2012-12-28 15:15:00
9:35 AM,29.1,28.0,96,30.10,1.0,SE,9.2,-,N/A,,Overcast,130,2012-12-28 15:35:00
9:55 AM,29.1,27.9,95,30.10,0.8,SE,6.9,-,N/A,,Overcast,140,2012-12-28 15:55:00
10:15 AM,29.1,28.0,96,30.10,2.0,SE,8.1,-,N/A,,Overcast,140,2012-12-28 16:15:00
10:35 AM,29.5,27.9,94,30.08,7.0,SE,6.9,-,N/A,,Overcast,140,2012-12-28 16:35:00
10:55 AM,30.0,27.3,90,30.07,10.0,SSE,10.4,-,N/A,,Overcast,160,2012-12-28 16:55:00
11:15 AM,30.2,26.8,87,30.07,10.0,South,8.1,-,N/A,,Overcast,170,2012-12-28 17:15:00
11:55 AM,30.7,27.3,87,30.03,10.0,SSE,8.1,-,N/A,,Overcast,150,2012-12-28 17:55:00
12:15 PM,30.6,27.1,87,30.01,10.0,SSE,9.2,-,N/A,,Overcast,150,2012-12-28 18:15:00
12:35 PM,30.6,27.1,87,30.00,10.0,SSE,10.4,-,N/A,,Overcast,150,2012-12-28 18:35:00
12:55 PM,30.6,27.0,86,29.99,10.0,SSE,9.2,-,N/A,,Overcast,150,2012-12-28 18:55:00
1:15 PM,30.6,27.0,86,29.98,10.0,SSE,9.2,-,N/A,,Overcast,150,2012-12-28 19:15:00
1:35 PM,30.6,27.1,87,29.97,10.0,SSE,9.2,-,N/A,,Overcast,150,2012-12-28 19:35:00
1:55 PM,30.7,27.1,86,29.97,10.0,SSE,10.4,-,N/A,,Overcast,150,2012-12-28 19:55:00
2:15 PM,30.9,26.6,84,29.96,10.0,SSE,9.2,-,N/A,,Overcast,150,2012-12-28 20:15:00
2:35 PM,30.9,26.8,85,29.95,10.0,SSE,8.1,-,N/A,,Overcast,150,2012-12-28 20:35:00
2:55 PM,30.6,26.6,85,29.95,10.0,SSE,6.9,-,N/A,,Overcast,150,2012-12-28 20:55:00
3:15 PM,30.6,26.6,85,29.96,10.0,SSE,8.1,-,N/A,,Overcast,150,2012-12-28 21:15:00
3:35 PM,30.4,26.2,85,29.96,10.0,SSE,8.1,-,N/A,,Overcast,150,2012-12-28 21:35:00
3:55 PM,30.2,26.4,86,29.96,10.0,SSE,9.2,-,N/A,,Overcast,160,2012-12-28 21:55:00
4:15 PM,30.2,26.6,86,29.95,7.0,SE,6.9,-,N/A,,Overcast,140,2012-12-28 22:15:00
4:35 PM,30.2,26.6,86,29.95,7.0,SE,4.6,-,N/A,,Overcast,130,2012-12-28 22:35:00
4:55 PM,30.2,26.4,86,29.95,10.0,SE,4.6,-,N/A,,Overcast,130,2012-12-28 22:55:00
5:15 PM,30.0,26.6,87,29.95,10.0,ESE,4.6,-,N/A,,Overcast,120,2012-12-28 23:15:00
5:35 PM,30.0,26.8,88,29.95,7.0,ESE,4.6,-,N/A,,Overcast,120,2012-12-28 23:35:00
5:55 PM,29.8,27.0,89,29.95,7.0,SE,4.6,-,N/A,,Overcast,130,2012-12-28 23:55:00
6:15 PM,29.8,27.0,89,29.95,7.0,ESE,3.5,-,N/A,,Overcast,120,2012-12-29 00:15:00
6:35 PM,30.0,27.0,88,29.95,10.0,ESE,4.6,-,N/A,,Overcast,120,2012-12-29 00:35:00
6:55 PM,30.0,26.6,87,29.95,10.0,ESE,3.5,-,N/A,,Overcast,120,2012-12-29 00:55:00
7:35 PM,29.8,26.6,88,29.93,10.0,East,3.5,-,N/A,,Overcast,80,2012-12-29 01:35:00
7:55 PM,29.7,26.6,88,29.93,10.0,NE,3.5,-,N/A,,Overcast,50,2012-12-29 01:55:00
8:15 PM,29.5,26.6,89,29.91,10.0,ENE,4.6,-,N/A,,Overcast,60,2012-12-29 02:15:00
8:35 PM,29.3,26.6,90,29.91,10.0,East,4.6,-,N/A,,Overcast,80,2012-12-29 02:35:00
8:55 PM,29.7,26.6,88,29.90,10.0,East,4.6,-,N/A,,Overcast,90,2012-12-29 02:55:00
9:15 PM,29.5,26.6,89,29.90,7.0,East,4.6,-,N/A,,Overcast,80,2012-12-29 03:15:00
9:35 PM,29.3,26.6,90,29.90,7.0,East,3.5,-,N/A,,Overcast,90,2012-12-29 03:35:00
9:55 PM,29.3,26.6,90,29.89,7.0,East,4.6,-,N/A,,Overcast,90,2012-12-29 03:55:00
10:15 PM,29.3,26.6,90,29.89,5.0,East,4.6,-,N/A,,Overcast,80,2012-12-29 04:15:00
10:35 PM,29.3,26.6,90,29.88,5.0,East,4.6,-,N/A,,Overcast,90,2012-12-29 04:35:00
10:55 PM,29.3,26.6,90,29.88,5.0,East,4.6,-,N/A,,Overcast,90,2012-12-29 04:55:00
11:15 PM,29.1,26.6,90,29.88,5.0,East,4.6,-,N/A,,Overcast,100,2012-12-29 05:15:00
11:35 PM,29.1,26.6,90,29.86,5.0,ENE,3.5,-,N/A,,Overcast,70,2012-12-29 05:35:00
11:55 PM,28.9,26.6,91,29.85,5.0,Calm,Calm,-,N/A,,Overcast,0,2012-12-29 05:55:00